"Pseudo-MPEC" for P10M5Op

Created 2019 Feb 15 22:18:09 UT using Find_Orb

Click here for an explanation of pseudo-MPECs

 
 Astrometry: 
     P10M5Op  C2019 02 04AdQAstrometry%O?YRwjN7X]/.redacted;L-Pm_DL'SZLMuFI_xF51
     P10M5Op  C2019 02 04(h=aclickA:,I+,nL20Z#s`*:dAhere`MjyKrhB4c6@2u^si1+TEF51
     P10M5Op  C2019 02 04H1b;rforyD@hsQ;aMO$cIk^-d'rIexplanation[=Km54bbjBa4bF51

Station data:
(F51) Pan-STARRS 1, Haleakala  (N20.707235 W156.255910)  US/Hawaii.
   Observers N. Primak, A. Schultz, S. Watters, J. Thiel, T. Goggia. Measurer
   PS1 Science Consortium. 1.8-m Ritchey-Chrétien + CCD.

Orbital elements:  P10M5Op
   Perihelion 2019 Jun 19.662170 +/- 61.5 TT = 15:53:31 (JD 2458654.162170)
Epoch 2019 Feb  4.0 TT = JDT 2458518.5   Earth MOID: 0.0015   Ve: 0.0174
M 192.15760895 +/- 110              (J2000 ecliptic)          AutoNEOCP
n   1.23720851 +/- 0.871            Peri.  174.58765 +/- 55
a   0.85935798 +/- 0.403            Node   130.79913 +/- 44
e   0.1622756 +/- 0.231             Incl.    0.35861 +/- 80
P   0.80/290.97d           H 27.9   G  0.15   U 12.6  SR
q 0.71990508 +/- 0.338    Q 0.99881088 +/- 10.7
From 3 observations 2019 Feb. 4 (37.1 min); mean residual 0".23
Residuals in arcseconds: 
190204 F51  .12-  .20+    190204 F51  .23+  .40-    190204 F51  .11-  .19+    

Ephemerides (geocentric):
Date (UTC) HH   RA              Dec         delta   r     elong  mag " sig PA
---- -- -- --  -------------   -----------  ------ ------ -----  --- ---- ---
2019 02 15 22  03 27 01.250   +22 24 03.01  .02538 .98735  88.3 23.1  38d 162
2019 02 15 23  03 26 42.582   +22 22 58.84  .02544 .98730  88.2 23.1  38d 162
2019 02 16 00  03 26 24.005   +22 21 54.83  .02550 .98726  88.1 23.1  38d 162
2019 02 16 01  03 26 05.519   +22 20 50.98  .02556 .98722  88.0 23.1  38d 162
2019 02 16 02  03 25 47.123   +22 19 47.30  .02562 .98717  87.9 23.1  38d 162
2019 02 16 03  03 25 28.816   +22 18 43.79  .02568 .98713  87.8 23.2  38d 162
2019 02 16 04  03 25 10.598   +22 17 40.44  .02574 .98708  87.7 23.2  38d 162
2019 02 16 05  03 24 52.468   +22 16 37.26  .02580 .98704  87.5 23.2  38d 162
2019 02 16 06  03 24 34.425   +22 15 34.25  .02586 .98700  87.4 23.2  38d 162
2019 02 16 07  03 24 16.468   +22 14 31.39  .02592 .98695  87.3 23.2  38d 162
2019 02 16 08  03 23 58.597   +22 13 28.70  .02598 .98691  87.2 23.2  38d 162
2019 02 16 09  03 23 40.811   +22 12 26.18  .02604 .98686  87.1 23.2  38d 162
2019 02 16 10  03 23 23.110   +22 11 23.82  .02610 .98682  87.0 23.2  38d 162
2019 02 16 11  03 23 05.493   +22 10 21.62  .02616 .98677  86.9 23.2  38d 162
2019 02 16 12  03 22 47.959   +22 09 19.58  .02622 .98673  86.8 23.2  38d 162
2019 02 16 13  03 22 30.508   +22 08 17.71  .02628 .98668  86.6 23.3  38d 162
2019 02 16 14  03 22 13.139   +22 07 16.00  .02634 .98664  86.5 23.3  38d 162
2019 02 16 15  03 21 55.851   +22 06 14.45  .02640 .98659  86.4 23.3  38d 162
2019 02 16 16  03 21 38.644   +22 05 13.06  .02646 .98655  86.3 23.3  38d 162
2019 02 16 17  03 21 21.517   +22 04 11.83  .02652 .98650  86.2 23.3  38d 162
2019 02 16 18  03 21 04.469   +22 03 10.77  .02658 .98646  86.1 23.3  38d 162
2019 02 16 19  03 20 47.501   +22 02 09.86  .02665 .98641  86.0 23.3  38d 162
2019 02 16 20  03 20 30.611   +22 01 09.11  .02671 .98637  85.9 23.3  38d 162
2019 02 16 21  03 20 13.799   +22 00 08.52  .02677 .98632  85.8 23.3  38d 162
2019 02 16 22  03 19 57.063   +21 59 08.09  .02683 .98628  85.7 23.3  38d 162
2019 02 16 23  03 19 40.405   +21 58 07.81  .02689 .98623  85.5 23.3  38d 162
2019 02 17 00  03 19 23.822   +21 57 07.70  .02695 .98619  85.4 23.4  38d 162
2019 02 17 01  03 19 07.315   +21 56 07.74  .02701 .98614  85.3 23.4  38d 162
2019 02 17 02  03 18 50.883   +21 55 07.94  .02707 .98610  85.2 23.4  38d 162
2019 02 17 03  03 18 34.526   +21 54 08.29  .02713 .98605  85.1 23.4  38d 162
2019 02 17 04  03 18 18.242   +21 53 08.80  .02719 .98600  85.0 23.4  38d 162
2019 02 17 05  03 18 02.031   +21 52 09.46  .02725 .98596  84.9 23.4  38d 162
2019 02 17 06  03 17 45.893   +21 51 10.28  .02731 .98591  84.8 23.4  38d 162
2019 02 17 07  03 17 29.827   +21 50 11.25  .02737 .98587  84.7 23.4  38d 162
2019 02 17 08  03 17 13.832   +21 49 12.38  .02743 .98582  84.6 23.4  38d 162
2019 02 17 09  03 16 57.909   +21 48 13.66  .02750 .98577  84.5 23.4  38d 162
2019 02 17 10  03 16 42.056   +21 47 15.09  .02756 .98573  84.4 23.4  38d 162
2019 02 17 11  03 16 26.274   +21 46 16.67  .02762 .98568  84.3 23.5  38d 162
2019 02 17 12  03 16 10.560   +21 45 18.41  .02768 .98563  84.2 23.5  38d 162
2019 02 17 13  03 15 54.916   +21 44 20.29  .02774 .98559  84.1 23.5  38d 162
2019 02 17 14  03 15 39.340   +21 43 22.33  .02780 .98554  83.9 23.5  38d 162
2019 02 17 15  03 15 23.833   +21 42 24.52  .02786 .98549  83.8 23.5  38d 162
2019 02 17 16  03 15 08.392   +21 41 26.85  .02792 .98545  83.7 23.5  38d 162
2019 02 17 17  03 14 53.019   +21 40 29.33  .02798 .98540  83.6 23.5  38d 162
2019 02 17 18  03 14 37.712   +21 39 31.97  .02804 .98535  83.5 23.5  38d 162
2019 02 17 19  03 14 22.472   +21 38 34.74  .02810 .98531  83.4 23.5  38d 162
2019 02 17 20  03 14 07.296   +21 37 37.67  .02817 .98526  83.3 23.5  38d 162
2019 02 17 21  03 13 52.186   +21 36 40.74  .02823 .98521  83.2 23.5  38d 162